STARLINK-32408, 62054

Orbit data source: Space-Track

STARLINK-32408, 62054 is a payload satellite owned by SpaceX/Seattle (US) in LEO that was launched on Thu, 21 Nov 2024 UTC via an FALCON 9 launch vehicle from the Air Force Eastern Test Range (AFETR). Payload-class satellites include a variety of spacecraft equipped with specific instruments for various scientific and technological missions. These include communications satellites like Starlink; space stations such as the ISS; scientific satellites like the Hubble; Earth observation satellites from companies like Planet Labs, Umbra, and HawkEye 360; GPS; miniature CubeSats for education and research; and military/defense satellites.

Loading next visibility...
Identifier
62054, 2024-216Y
Orbit
LEO
Country
Flag of USUS
Related business
Manufacturer
SpaceX/Seattle
Mission
Operational Commercial Communications
Bus & Motor
STARLINK V2M, Unknown motor
Mass
730 kg wet, ~700 kg dry
Launch date (UTC)
2024-11-21 (11 months ago)
Launch vehicle
FALCON 9
Launch site
Air Force Eastern Test Range (AFETR)
Object type
Payload
Rocket body
Debris
Shape & HBR
Box + 2 Pan, 17.7 m
Radar Cross Section
33.884 m², Large (>1 m²)

Expand to show TLE details & history
Last TLE update: 10 hours ago

TLE from 10 hours ago
0 STARLINK-32408
1 62054U 24216Y   25300.02781029  .00040372  00000-0  14684-2 0  9992
2 62054  43.0014 291.1879 0001067 268.8418  91.2311 15.27585258 53440
Epoch: 2025-10-27T00:40Z
TLE epoch observation values (Epoch: 2025-10-27T00:40:02.809Z)
Latitude
-0.00003°
Longitude
-114.45938°
Altitude
482.825 km
Speed
7.626 km/s
True Right ascension
19h 24m 45s
True Declination
0° 00' 00"
Sunlit
Object was in daylight at epoch
Visualization orbit readout
Latitude
Unknown
Longitude
Unknown
Altitude
Unknown
Speed
Unknown
Apparent Right ascension
Unknown
Apparent Declination
Unknown
Sunlit
N/A
Visualization observer readout
Local Sidereal Time
06:18:30
Azimuth
Unknown
Elevation
Unknown
Doppler factor
Unknown
Orbital elements
Apogee altitude
485.711 km
Perigee altitude
484.246 km
Semi-major axis
6,863.115 km
Eccentricity
0.00011
Inclination
43.0014°
RAAN
291.1879°
Arg. of periapsis
268.8418°
True anomaly
91.24332°
Mean anomaly
91.2311°
Eccentric anomaly
91.23721°
Mean motion
3.81734 °/min
Orbital period
94.31 mins
BSTAR
0.0014684
Loading maneuver chart data...
Computing Atmospheric mass density...
Loading historical data...
Loading historical data...
Loading historical data...
Loading historical data...
Loading historical data...
Loading historical data...
Loading historical data...

Documentation

Showing up to 5 results
|